When you browse on this site, cookies collect data to enhance your experience and personalize the content and advertising you see.
Visit our Privacy Policy to learn more. By continuing to use the site, you agree to this use of cookies and data.
  • En España
  • Lista de países
  • Para 7 días
  • Temperatura del agua
  • Mapa Satelital
  • El tiempo en el mapa
  • Informadores
  • user-avatar
    Iniciar sesión

    Tiempo cada hora Malanje

    Hoy, 23 Marzo, Sábado

    Tiempo Temperatura Precipitaciones Viento Presión Humedad
    00:00 +23°C° 1.3 mm 1 mps 664 mmHg 83%
    01:00 +20°C° 0 mm 0 mps 664 mmHg 87%
    02:00 +20°C° 0.7 mm 0 mps 663 mmHg 90%
    03:00 +21°C° 0.7 mm 1 mps 663 mmHg 92%
    04:00 +21°C° 0.7 mm 1 mps 663 mmHg 94%
    05:00 +21°C° 0 mm 1 mps 664 mmHg 95%
    06:00 +21°C° 0 mm 1 mps 664 mmHg 95%
    07:00 +22°C° 0 mm 1 mps 665 mmHg 95%
    08:00 +23°C° 1.5 mm 1 mps 665 mmHg 91%
    09:00 +25°C° 1.5 mm 1 mps 666 mmHg 87%
    10:00 +26°C° 1.5 mm 1 mps 666 mmHg 84%
    11:00 +27°C° 1.3 mm 1 mps 666 mmHg 78%
    12:00 +28°C° 1.3 mm 1 mps 666 mmHg 72%
    13:00 +28°C° 0 mm 1 mps 665 mmHg 68%
    14:00 +28°C° 0.5 mm 1 mps 665 mmHg 71%
    15:00 +27°C° 0.5 mm 1 mps 664 mmHg 74%
    16:00 +27°C° 0.5 mm 1 mps 664 mmHg 76%
    17:00 +26°C° 0.1 mm 1 mps 664 mmHg 81%
    18:00 +24°C° 0.1 mm 1 mps 664 mmHg 86%
    19:00 +23°C° 0.1 mm 2 mps 664 mmHg 91%
    20:00 +21°C° 0.2 mm 2 mps 664 mmHg 93%
    21:00 +21°C° 0.2 mm 2 mps 664 mmHg 95%
    22:00 +20°C° 0.2 mm 2 mps 664 mmHg 97%
    23:00 +21°C° 1.2 mm 1 mps 664 mmHg 97%

    Mañana, 24 Marzo, Domingo

    Tiempo Temperatura Precipitaciones Viento Presión Humedad
    00:00 +20°C° 1.2 mm 1 mps 664 mmHg 97%
    01:00 +20°C° 1.2 mm 1 mps 664 mmHg 97%
    02:00 +20°C° 0 mm 1 mps 664 mmHg 97%
    03:00 +20°C° 0 mm 1 mps 664 mmHg 97%
    04:00 +20°C° 0 mm 1 mps 664 mmHg 96%
    05:00 +20°C° 0 mm 1 mps 664 mmHg 96%
    06:00 +20°C° 0 mm 1 mps 664 mmHg 96%
    07:00 +21°C° 0 mm 1 mps 665 mmHg 96%
    08:00 +23°C° 0 mm 1 mps 665 mmHg 88%
    09:00 +25°C° 0 mm 1 mps 666 mmHg 80%
    10:00 +27°C° 0 mm 1 mps 667 mmHg 71%
    11:00 +28°C° 0.1 mm 1 mps 666 mmHg 66%
    12:00 +29°C° 0.1 mm 2 mps 665 mmHg 61%
    13:00 +30°C° 0.1 mm 2 mps 665 mmHg 56%
    14:00 +30°C° 0.4 mm 1 mps 664 mmHg 58%
    15:00 +30°C° 0.4 mm 1 mps 664 mmHg 60%
    16:00 +30°C° 0.4 mm 1 mps 664 mmHg 62%
    17:00 +28°C° 0.8 mm 1 mps 663 mmHg 71%
    18:00 +25°C° 0.8 mm 1 mps 663 mmHg 79%
    19:00 +23°C° 0.8 mm 2 mps 663 mmHg 88%
    20:00 +23°C° 0.1 mm 1 mps 664 mmHg 90%
    21:00 +22°C° 0.1 mm 1 mps 664 mmHg 92%
    22:00 +22°C° 0.1 mm 1 mps 664 mmHg 94%
    23:00 +22°C° 0.4 mm 1 mps 664 mmHg 95%

    Pasado mañana, 25 Marzo, Lunes

    Tiempo Temperatura Precipitaciones Viento Presión Humedad
    00:00 +22°C° 0.4 mm 1 mps 664 mmHg 95%
    01:00 +22°C° 0.4 mm 1 mps 664 mmHg 95%
    02:00 +21°C° 0 mm 1 mps 664 mmHg 95%
    03:00 +21°C° 0 mm 1 mps 664 mmHg 96%
    04:00 +21°C° 0 mm 1 mps 663 mmHg 97%
    05:00 +21°C° 0 mm 1 mps 664 mmHg 97%
    06:00 +21°C° 0 mm 1 mps 664 mmHg 97%
    07:00 +20°C° 0 mm 2 mps 664 mmHg 97%
    08:00 +23°C° 0 mm 2 mps 665 mmHg 92%
    09:00 +24°C° 0 mm 2 mps 666 mmHg 86%
    10:00 +26°C° 0 mm 1 mps 666 mmHg 81%
    11:00 +27°C° 0.2 mm 1 mps 666 mmHg 75%
    12:00 +29°C° 0.2 mm 1 mps 665 mmHg 69%
    13:00 +30°C° 0.2 mm 1 mps 665 mmHg 64%
    14:00 +29°C° 1.5 mm 1 mps 664 mmHg 71%
    15:00 +28°C° 1.5 mm 1 mps 664 mmHg 77%
    16:00 +26°C° 1.5 mm 1 mps 663 mmHg 84%
    17:00 +25°C° 0.8 mm 1 mps 663 mmHg 86%
    18:00 +23°C° 0.8 mm 1 mps 663 mmHg 89%
    19:00 +22°C° 0.8 mm 1 mps 664 mmHg 92%
    20:00 +22°C° 0.4 mm 1 mps 664 mmHg 92%
    21:00 +21°C° 0.4 mm 1 mps 665 mmHg 93%
    22:00 +21°C° 0.4 mm 1 mps 665 mmHg 94%
    23:00 +21°C° 0.2 mm 1 mps 665 mmHg 95%

    26 Marzo, Martes

    Tiempo Temperatura Precipitaciones Viento Presión Humedad
    00:00 +21°C° 0.2 mm 1 mps 665 mmHg 96%
    01:00 +20°C° 0.2 mm 1 mps 664 mmHg 97%
    02:00 +20°C° 0 mm 1 mps 664 mmHg 97%
    03:00 +21°C° 0 mm 1 mps 664 mmHg 98%
    04:00 +21°C° 0 mm 1 mps 664 mmHg 98%
    05:00 +21°C° 0 mm 1 mps 664 mmHg 98%
    06:00 +21°C° 0 mm 1 mps 665 mmHg 97%
    07:00 +22°C° 0 mm 1 mps 666 mmHg 97%
    08:00 +22°C° 0 mm 1 mps 666 mmHg 94%
    09:00 +23°C° 0 mm 1 mps 666 mmHg 91%
    10:00 +24°C° 0 mm 2 mps 667 mmHg 88%
    11:00 +24°C° 0.2 mm 2 mps 666 mmHg 84%
    12:00 +25°C° 0.2 mm 2 mps 665 mmHg 80%
    13:00 +26°C° 0.2 mm 2 mps 665 mmHg 76%
    14:00 +26°C° 1.2 mm 2 mps 664 mmHg 79%
    15:00 +26°C° 1.2 mm 1 mps 664 mmHg 81%
    16:00 +26°C° 1.2 mm 1 mps 664 mmHg 83%
    17:00 +25°C° 0.3 mm 1 mps 664 mmHg 86%
    18:00 +24°C° 0.3 mm 1 mps 664 mmHg 89%
    19:00 +20°C° 0.3 mm 0 mps 665 mmHg 93%
    20:00 +22°C° 0.2 mm 1 mps 665 mmHg 94%
    21:00 +21°C° 0.2 mm 1 mps 665 mmHg 95%
    22:00 +21°C° 0.2 mm 1 mps 666 mmHg 96%
    23:00 +21°C° 0 mm 1 mps 665 mmHg 96%

    27 Marzo, Miércoles

    Tiempo Temperatura Precipitaciones Viento Presión Humedad
    00:00 +20°C° 0 mm 1 mps 665 mmHg 97%
    01:00 +20°C° 0 mm 1 mps 665 mmHg 98%
    02:00 +18°C° 0 mm 0 mps 665 mmHg 97%
    03:00 +18°C° 0 mm 0 mps 665 mmHg 97%
    04:00 +18°C° 0 mm 0 mps 665 mmHg 97%
    05:00 +18°C° 0 mm 0 mps 665 mmHg 97%
    06:00 +20°C° 0 mm 1 mps 666 mmHg 96%
    07:00 +21°C° 0 mm 1 mps 667 mmHg 96%
    08:00 +22°C° 0 mm 1 mps 667 mmHg 90%
    09:00 +24°C° 0 mm 2 mps 668 mmHg 84%
    10:00 +25°C° 0 mm 2 mps 668 mmHg 79%
    11:00 +27°C° 0 mm 2 mps 667 mmHg 71%
    12:00 +28°C° 0 mm 2 mps 667 mmHg 64%
    13:00 +30°C° 0 mm 2 mps 666 mmHg 57%
    14:00 +30°C° 0.1 mm 1 mps 666 mmHg 59%
    15:00 +30°C° 0.1 mm 1 mps 666 mmHg 61%
    16:00 +29°C° 0.1 mm 1 mps 665 mmHg 63%
    17:00 +28°C° 0.1 mm 1 mps 666 mmHg 69%
    18:00 +26°C° 0.1 mm 1 mps 666 mmHg 75%
    19:00 +24°C° 0.1 mm 1 mps 666 mmHg 80%
    20:00 +23°C° 0 mm 1 mps 666 mmHg 81%
    21:00 +23°C° 0 mm 1 mps 666 mmHg 82%
    22:00 +22°C° 0 mm 1 mps 667 mmHg 82%
    23:00 +22°C° 0 mm 1 mps 666 mmHg 81%

    28 Marzo, Jueves

    Tiempo Temperatura Precipitaciones Viento Presión Humedad
    00:00 +21°C° 0 mm 1 mps 666 mmHg 79%
    01:00 +21°C° 0 mm 1 mps 665 mmHg 78%
    02:00 +21°C° 0 mm 1 mps 665 mmHg 80%
    03:00 +21°C° 0 mm 1 mps 665 mmHg 82%
    04:00 +20°C° 0 mm 1 mps 665 mmHg 84%
    05:00 +20°C° 0 mm 1 mps 665 mmHg 85%
    06:00 +19°C° 0 mm 2 mps 666 mmHg 87%
    07:00 +20°C° 0 mm 2 mps 666 mmHg 88%
    08:00 +23°C° 0 mm 2 mps 666 mmHg 82%
    09:00 +25°C° 0 mm 2 mps 667 mmHg 76%
    10:00 +27°C° 0 mm 2 mps 667 mmHg 70%
    11:00 +28°C° 0 mm 2 mps 667 mmHg 65%
    12:00 +30°C° 0 mm 1 mps 666 mmHg 60%
    13:00 +31°C° 0 mm 1 mps 666 mmHg 55%
    14:00 +31°C° 0 mm 1 mps 665 mmHg 56%
    15:00 +31°C° 0 mm 1 mps 665 mmHg 57%
    16:00 +29°C° 0 mm 0 mps 664 mmHg 58%
    17:00 +27°C° 0 mm 0 mps 665 mmHg 63%
    18:00 +25°C° 0 mm 0 mps 665 mmHg 68%
    19:00 +23°C° 0 mm 0 mps 665 mmHg 74%
    20:00 +22°C° 0.6 mm 0 mps 665 mmHg 78%
    21:00 +23°C° 0.5 mm 1 mps 665 mmHg 83%
    22:00 +22°C° 0.5 mm 1 mps 665 mmHg 87%
    23:00 +22°C° 0.5 mm 1 mps 665 mmHg 90%
    Mostrar más